New River MCAS, NC

3:13 AM EDT on April 20, 2018 (GMT -0400)
New River Marine Corps Air Station

Weather History for KNCA - October, 2011

Change the Weather History Date:

Sunday, October 2, 2011

  Actual Average Record
Temperature  
Mean Temperature 54 °F -  
Max Temperature 64 °F 76 °F 86 °F (2002)
Min Temperature 44 °F 57 °F 44 °F (2011)
Degree Days  
Heating Degree Days 11    
Growing Degree Days 4 (Base 50)    
Moisture  
Dew Point 42 °F    
Average Humidity 69    
Maximum Humidity 100    
Minimum Humidity 38    
Precipitation  
Precipitation 0.00 in - - ()
Sea Level Pressure  
Sea Level Pressure 29.99 in    
Wind  
Wind Speed 7 mph (West)    
Max Wind Speed 15 mph    
Max Gust Speed 23 mph    
Visibility 10 miles    
Events      
Averages and records for this station are not official NWS values.
T = Trace of Precipitation, MM = Missing Value Source: NWS Daily Summary

Daily Weather History Graph

Daily Weather History Graph

Search for Another Location

Airport or City:

Astronomy

Oct. 02, 2011 Rise Set
Actual Time 7:04 AM EDT 6:52 PM EDT
Civil Twilight 6:39 AM EDT 7:17 PM EDT
Nautical Twilight 6:10 AM EDT 7:47 PM EDT
Astronomical Twilight 5:41 AM EDT 8:16 PM EDT
Moon 12:55 PM EDT (10/2) 11:02 PM EDT (10/2)
Length of Visible Light 12h 38m
Length of Day
11h 47m
Waxing Crescent, 34% of the Moon is Illuminated
Oct 2
Waxing Crescent
Oct 3
First Quarter
Oct 11
Full
Oct 19
Last Quarter
Oct 26
New

Hourly Weather History & Observations

Time (EDT) Temp. Windchill Dew Point Humidity Pressure Visibility Wind Dir Wind Speed Gust Speed Precip Events Conditions
12:56 AM 48.9 °F - 41.0 °F 74% 29.96 in 10.0 mi WNW 4.6 mph - N/A   Clear
1:56 AM 46.0 °F 42.5 °F 43.0 °F 89% 29.96 in 10.0 mi West 6.9 mph - N/A   Clear
2:56 AM 46.0 °F 43.1 °F 42.1 °F 86% 29.95 in 10.0 mi West 5.8 mph - N/A   Clear
3:56 AM 46.9 °F - 41.0 °F 80% 29.95 in 10.0 mi WSW 4.6 mph - N/A   Clear
4:56 AM 45.0 °F 41.2 °F 41.0 °F 86% 29.95 in 10.0 mi West 6.9 mph - N/A   Clear
5:56 AM 44.1 °F 39.5 °F 41.0 °F 89% 29.95 in 10.0 mi West 8.1 mph - N/A   Clear
6:56 AM 44.1 °F 40.1 °F 41.0 °F 89% 29.97 in 10.0 mi West 6.9 mph - N/A   Clear
7:56 AM 46.9 °F - 42.1 °F 83% 29.99 in 10.0 mi West 8.1 mph - N/A   Clear
8:56 AM 53.1 °F - 44.1 °F 71% 30.00 in 10.0 mi WNW 10.4 mph - N/A   Scattered Clouds
9:56 AM 57.0 °F - 44.1 °F 62% 30.00 in 10.0 mi WNW 10.4 mph - N/A   Clear
10:56 AM 60.1 °F - 43.0 °F 53% 30.00 in 10.0 mi WNW 12.7 mph - N/A   Partly Cloudy
11:56 AM 60.1 °F - 42.1 °F 51% 29.99 in 10.0 mi West 9.2 mph - N/A   Partly Cloudy
12:56 PM 63.0 °F - 44.1 °F 50% 29.98 in 10.0 mi West 10.4 mph 23.0 mph N/A   Mostly Cloudy
1:56 PM 63.0 °F - 41.0 °F 45% 29.96 in 10.0 mi West 9.2 mph 21.9 mph N/A   Clear
2:31 PM 64.4 °F - 39.2 °F 40% 29.95 in 10.0 mi West 12.7 mph 20.7 mph N/A   Scattered Clouds
2:56 PM 64.9 °F - 39.9 °F 40% 29.96 in 10.0 mi WNW 15.0 mph 21.9 mph N/A   Scattered Clouds
3:56 PM 64.0 °F - 37.9 °F 38% 29.97 in 10.0 mi WSW 15.0 mph 21.9 mph N/A   Scattered Clouds
4:56 PM 64.0 °F - 37.9 °F 38% 29.98 in 10.0 mi WNW 9.2 mph - N/A   Partly Cloudy
5:56 PM 62.1 °F - 37.0 °F 39% 29.99 in 10.0 mi WNW 9.2 mph - N/A   Clear
6:56 PM 55.9 °F - 41.0 °F 57% 30.02 in 10.0 mi WNW 4.6 mph - N/A   Clear
7:56 PM 52.0 °F - 44.1 °F 74% 30.04 in 10.0 mi Calm Calm - N/A   Clear
8:56 PM 48.9 °F - 46.0 °F 90% 30.05 in 10.0 mi Calm Calm - N/A   Clear
9:56 PM 46.9 °F - 46.9 °F 100% 30.07 in 10.0 mi Calm Calm - N/A   Clear
10:56 PM 46.0 °F - 45.0 °F 96% 30.06 in 10.0 mi Calm Calm - N/A   Clear
11:56 PM 46.0 °F - 45.0 °F 96% 30.07 in 10.0 mi Calm Calm - N/A   Clear